When you browse on this site, cookies collect data to enhance your experience and personalize the content and advertising you see.
Visit our Privacy Policy to learn more. By continuing to use the site, you agree to this use of cookies and data.

Hourly Weather Podcisowie

Today, 28 September, Monday

Time Temperature Precipitation Wind Pressure Humidity
00:00 +7°C° 0 mm 2 mps 726 mmHg 72%
01:00 +7°C° 0 mm 3 mps 726 mmHg 73%
02:00 +7°C° 0 mm 3 mps 726 mmHg 75%
03:00 +7°C° 0 mm 3 mps 726 mmHg 76%
04:00 +5°C° 0 mm 3 mps 726 mmHg 78%
05:00 +7°C° 0 mm 3 mps 726 mmHg 77%
06:00 +7°C° 0 mm 4 mps 726 mmHg 76%
07:00 +7°C° 0 mm 5 mps 727 mmHg 74%
08:00 +8°C° 0 mm 5 mps 726 mmHg 70%
09:00 +9°C° 0 mm 5 mps 726 mmHg 67%
10:00 +10°C° 0 mm 5 mps 726 mmHg 63%
11:00 +12°C° 0.1 mm 5 mps 726 mmHg 63%
12:00 +13°C° 0.1 mm 5 mps 726 mmHg 63%
13:00 +13°C° 0.1 mm 4 mps 726 mmHg 62%
14:00 +13°C° 0.3 mm 4 mps 726 mmHg 65%
15:00 +14°C° 0.3 mm 4 mps 726 mmHg 68%
16:00 +14°C° 0.3 mm 4 mps 725 mmHg 71%
17:00 +13°C° 0 mm 4 mps 725 mmHg 72%
18:00 +13°C° 0 mm 4 mps 725 mmHg 74%
19:00 +13°C° 0 mm 4 mps 725 mmHg 75%
20:00 +12°C° 0.6 mm 3 mps 725 mmHg 82%
21:00 +13°C° 0.6 mm 2 mps 725 mmHg 88%
22:00 +12°C° 0.6 mm 1 mps 725 mmHg 94%
23:00 +12°C° 0.4 mm 1 mps 725 mmHg 95%

Tomorrow, 29 September, Tuesday

Time Temperature Precipitation Wind Pressure Humidity
00:00 +12°C° 0.4 mm 1 mps 725 mmHg 95%
01:00 +11°C° 0.4 mm 0 mps 725 mmHg 95%
02:00 +12°C° 0.1 mm 1 mps 725 mmHg 95%
03:00 +12°C° 0.1 mm 1 mps 725 mmHg 95%
04:00 +12°C° 0.1 mm 1 mps 724 mmHg 95%
05:00 +12°C° 0.1 mm 1 mps 724 mmHg 94%
06:00 +12°C° 0.1 mm 1 mps 725 mmHg 94%
07:00 +11°C° 0.1 mm 0 mps 725 mmHg 93%
08:00 +12°C° 0.4 mm 1 mps 725 mmHg 93%
09:00 +13°C° 0.4 mm 1 mps 725 mmHg 93%
10:00 +13°C° 0.4 mm 1 mps 725 mmHg 92%
11:00 +13°C° 1.8 mm 1 mps 725 mmHg 93%
12:00 +13°C° 1.8 mm 2 mps 725 mmHg 94%
13:00 +13°C° 1.8 mm 2 mps 725 mmHg 95%
14:00 +13°C° 0.4 mm 2 mps 725 mmHg 95%
15:00 +13°C° 0.4 mm 2 mps 725 mmHg 95%
16:00 +12°C° 0.4 mm 2 mps 725 mmHg 94%
17:00 +12°C° 0.2 mm 2 mps 725 mmHg 95%
18:00 +12°C° 0.2 mm 2 mps 726 mmHg 95%
19:00 +12°C° 0.2 mm 2 mps 726 mmHg 96%
20:00 +12°C° 0.1 mm 2 mps 726 mmHg 96%
21:00 +12°C° 0.1 mm 2 mps 726 mmHg 96%
22:00 +12°C° 0.1 mm 2 mps 726 mmHg 96%
23:00 +12°C° 0.1 mm 2 mps 725 mmHg 96%

Day after tomorrow, 30 September, Wednesday

Time Temperature Precipitation Wind Pressure Humidity
00:00 +12°C° 0.1 mm 2 mps 725 mmHg 96%
01:00 +12°C° 0.1 mm 2 mps 725 mmHg 96%
02:00 +11°C° 0.2 mm 3 mps 725 mmHg 96%
03:00 +11°C° 0.2 mm 3 mps 725 mmHg 95%
04:00 +11°C° 0.2 mm 3 mps 725 mmHg 95%
05:00 +11°C° 0.6 mm 4 mps 725 mmHg 94%
06:00 +11°C° 0.6 mm 4 mps 725 mmHg 94%
07:00 +11°C° 0.6 mm 4 mps 725 mmHg 94%
08:00 +11°C° 0.1 mm 4 mps 725 mmHg 92%
09:00 +10°C° 0.1 mm 5 mps 724 mmHg 91%
10:00 +10°C° 0.1 mm 5 mps 724 mmHg 89%
11:00 +10°C° 0.4 mm 5 mps 724 mmHg 90%
12:00 +10°C° 0.4 mm 5 mps 724 mmHg 91%
13:00 +10°C° 0.4 mm 5 mps 724 mmHg 92%
14:00 +10°C° 2.3 mm 5 mps 723 mmHg 93%
15:00 +10°C° 2.3 mm 5 mps 723 mmHg 94%
16:00 +11°C° 2.3 mm 4 mps 723 mmHg 95%
17:00 +11°C° 1.2 mm 4 mps 723 mmHg 95%
18:00 +11°C° 1.2 mm 4 mps 723 mmHg 95%
19:00 +11°C° 1.2 mm 4 mps 723 mmHg 95%
20:00 +11°C° 0.4 mm 4 mps 723 mmHg 95%
21:00 +11°C° 0.4 mm 3 mps 723 mmHg 95%
22:00 +11°C° 0.4 mm 3 mps 723 mmHg 94%
23:00 +11°C° 0.1 mm 3 mps 722 mmHg 95%

1 October, Thursday

Time Temperature Precipitation Wind Pressure Humidity
00:00 +11°C° 0.1 mm 3 mps 722 mmHg 95%
01:00 +11°C° 0.1 mm 3 mps 722 mmHg 96%
02:00 +11°C° 0.2 mm 3 mps 722 mmHg 96%
03:00 +11°C° 0.2 mm 3 mps 722 mmHg 95%
04:00 +11°C° 0.2 mm 3 mps 722 mmHg 95%
05:00 +11°C° 0.1 mm 3 mps 721 mmHg 94%
06:00 +11°C° 0.1 mm 3 mps 721 mmHg 93%
07:00 +10°C° 0.1 mm 3 mps 721 mmHg 92%
08:00 +11°C° 0 mm 3 mps 721 mmHg 88%
09:00 +12°C° 0 mm 3 mps 721 mmHg 84%
10:00 +13°C° 0 mm 3 mps 721 mmHg 81%
11:00 +13°C° 0 mm 3 mps 721 mmHg 80%
12:00 +13°C° 0 mm 3 mps 721 mmHg 79%
13:00 +14°C° 0 mm 2 mps 721 mmHg 78%
14:00 +13°C° 0.1 mm 2 mps 720 mmHg 81%
15:00 +12°C° 0.1 mm 3 mps 720 mmHg 84%
16:00 +11°C° 0.1 mm 3 mps 720 mmHg 87%
17:00 +12°C° 0 mm 2 mps 720 mmHg 88%
18:00 +10°C° 0 mm 2 mps 721 mmHg 89%
19:00 +10°C° 0 mm 2 mps 721 mmHg 90%
20:00 +10°C° 0 mm 1 mps 721 mmHg 91%
21:00 +10°C° 0 mm 1 mps 721 mmHg 92%
22:00 +10°C° 0 mm 1 mps 721 mmHg 93%
23:00 +10°C° 0 mm 1 mps 721 mmHg 94%

2 October, Friday

Time Temperature Precipitation Wind Pressure Humidity
00:00 +10°C° 0 mm 1 mps 721 mmHg 94%
01:00 +10°C° 0 mm 1 mps 721 mmHg 94%
02:00 +10°C° 0 mm 1 mps 721 mmHg 94%
03:00 +10°C° 0 mm 1 mps 721 mmHg 94%
04:00 +10°C° 0 mm 1 mps 722 mmHg 95%
05:00 +11°C° 0 mm 1 mps 722 mmHg 94%
06:00 +11°C° 0 mm 1 mps 722 mmHg 94%
07:00 +11°C° 0 mm 1 mps 722 mmHg 93%
08:00 +12°C° 0 mm 2 mps 722 mmHg 89%
09:00 +13°C° 0 mm 2 mps 722 mmHg 85%
10:00 +14°C° 0 mm 2 mps 722 mmHg 81%
11:00 +15°C° 0 mm 2 mps 723 mmHg 77%
12:00 +14°C° 0 mm 3 mps 723 mmHg 73%
13:00 +16°C° 0 mm 3 mps 723 mmHg 69%
14:00 +16°C° 0 mm 3 mps 723 mmHg 70%
15:00 +16°C° 0 mm 3 mps 723 mmHg 72%
16:00 +14°C° 0 mm 3 mps 723 mmHg 74%
17:00 +13°C° 0 mm 3 mps 723 mmHg 78%
18:00 +12°C° 0 mm 3 mps 723 mmHg 82%
19:00 +11°C° 0 mm 3 mps 723 mmHg 87%
20:00 +11°C° 0 mm 3 mps 723 mmHg 89%
21:00 +11°C° 0 mm 3 mps 723 mmHg 91%
22:00 +10°C° 0 mm 3 mps 723 mmHg 93%
23:00 +10°C° 0 mm 3 mps 723 mmHg 93%

3 October, Saturday

Time Temperature Precipitation Wind Pressure Humidity
00:00 +10°C° 0 mm 3 mps 723 mmHg 93%
01:00 +10°C° 0 mm 3 mps 723 mmHg 93%
02:00 +10°C° 0 mm 4 mps 723 mmHg 91%
03:00 +10°C° 0 mm 4 mps 723 mmHg 89%
04:00 +11°C° 0 mm 4 mps 722 mmHg 87%
05:00 +10°C° 0 mm 5 mps 722 mmHg 87%
06:00 +12°C° 0 mm 5 mps 722 mmHg 87%
07:00 +11°C° 0 mm 6 mps 722 mmHg 87%
08:00 +13°C° 0 mm 6 mps 722 mmHg 85%
09:00 +13°C° 0 mm 6 mps 722 mmHg 83%
10:00 +14°C° 0 mm 6 mps 722 mmHg 81%
11:00 +16°C° 0 mm 6 mps 722 mmHg 74%
12:00 +19°C° 0 mm 6 mps 722 mmHg 68%
13:00 +21°C° 0 mm 5 mps 722 mmHg 61%
14:00 +20°C° 0 mm 5 mps 722 mmHg 63%
15:00 +20°C° 0 mm 4 mps 722 mmHg 64%
16:00 +19°C° 0 mm 4 mps 722 mmHg 66%
17:00 +18°C° 0 mm 4 mps 722 mmHg 68%
18:00 +18°C° 0 mm 4 mps 723 mmHg 70%
19:00 +17°C° 0 mm 4 mps 723 mmHg 73%
20:00 +15°C° 0 mm 4 mps 723 mmHg 75%
21:00 +15°C° 0 mm 4 mps 723 mmHg 77%
22:00 +14°C° 0 mm 4 mps 723 mmHg 79%
23:00 +14°C° 0 mm 4 mps 722 mmHg 81%
Show more